Weather History for Sioux City, IA

Change the Weather History Date:

Tuesday, January 1, 2013

  Actual Average Record
Temperature  
Mean Temperature 7 °F 20 °F  
Max Temperature 19 °F 30 °F 61 °F (1939)
Min Temperature -5 °F 10 °F -20 °F (1974)
Degree Days  
Heating Degree Days 58 45  
Month to date heating degree days 58 45  
Since 1 July heating degree days 2741 2837  
Cooling Degree Days 0 0  
Month to date cooling degree days 0 0  
Year to date cooling degree days 0 0  
Moisture  
Dew Point 6 °F    
Average Humidity 84    
Maximum Humidity 95    
Minimum Humidity 73    
Precipitation  
Precipitation 0.00 in 0.02 in 0.56 in (1960)
Month to date precipitation 0.00 0.02  
Year to date precipitation 0.00 0.02  
Snow  
Snow 0.00 in 0.20 in 5.80 in (1960)
Month to date snowfall 0.0 0.2  
Since 1 July snowfall 10.0 13.4  
Snow Depth 4.00 in    
Sea Level Pressure  
Sea Level Pressure 30.26 in    
Wind  
Wind Speed 5 mph (SSE)    
Max Wind Speed 13 mph    
Max Gust Speed 15 mph    
Visibility 10 miles    
Events      
T = Trace of Precipitation, MM = Missing Value Source: NWS Daily Summary

Daily Weather History Graph

Daily Weather History Graph

Search for Another Location

Airport:

Trip Planner

Search our weather history database for the weather conditions in past years. The results will help you decide how hot, cold, wet, or windy it might be!

Date:

Astronomy

Jan. 01, 2013 Rise Set
Actual Time 7:54 AM CST 5:03 PM CST
Civil Twilight 7:23 AM CST 5:35 PM CST
Nautical Twilight 6:47 AM CST 6:11 PM CST
Astronomical Twilight 6:13 AM CST 6:45 PM CST
Moon 9:41 PM CST (1/1) 10:02 AM CST (1/1)
Length of Visible Light 10h 12m
Length of Day
9h 08m
Waning Gibbous, 83% of the Moon is Illuminated
Jan 1
Waning Gibbous
Jan 4
Last Quarter
Jan 11
New
Jan 18
First Quarter
Jan 26
Full

Hourly Weather History & Observations

Time (CST) Temp. Windchill Dew Point Humidity Pressure Visibility Wind Dir Wind Speed Gust Speed Precip Events Conditions
12:52 AM 1.9 °F - -0.9 °F 88% 30.35 in 10.0 mi Calm Calm - N/A   Clear
1:40 AM -2.2 °F - -2.2 °F 100% 30.28 in 10.0 mi Calm Calm - N/A   Mostly Cloudy
1:52 AM -2.0 °F - -6.0 °F 83% 30.36 in 10.0 mi Calm Calm - N/A   Overcast
2:52 AM 5.0 °F - 1.0 °F 84% 30.36 in 10.0 mi Calm Calm - N/A   Overcast
3:52 AM 5.0 °F -2.1 °F 1.0 °F 84% 30.35 in 10.0 mi ESE 3.5 mph - N/A   Overcast
4:52 AM 6.1 °F -2.8 °F -0.9 °F 73% 30.35 in 10.0 mi ESE 4.6 mph - N/A   Overcast
5:52 AM 6.1 °F - -0.9 °F 73% 30.34 in 10.0 mi Calm Calm - N/A   Overcast
6:52 AM 7.0 °F - 1.0 °F 77% 30.34 in 10.0 mi Calm Calm - N/A   Overcast
7:52 AM 7.0 °F 0.1 °F 1.0 °F 77% 30.34 in 10.0 mi SSE 3.5 mph - N/A   Overcast
8:52 AM 6.1 °F -4.3 °F 1.0 °F 80% 30.34 in 10.0 mi SE 5.8 mph - N/A   Overcast
9:52 AM 7.0 °F -1.7 °F 1.9 °F 80% 30.35 in 10.0 mi ESE 4.6 mph - N/A   Overcast
10:52 AM 10.0 °F 1.8 °F 3.9 °F 76% 30.36 in 10.0 mi SE 4.6 mph - N/A   Overcast
11:52 AM 10.9 °F 1.4 °F 6.1 °F 81% 30.35 in 10.0 mi ESE 5.8 mph - N/A   Overcast
12:52 PM 12.9 °F 2.6 °F 8.1 °F 81% 30.32 in 10.0 mi ESE 6.9 mph - N/A   Overcast
1:52 PM 16.0 °F 7.4 °F 10.9 °F 81% 30.29 in 10.0 mi ESE 5.8 mph - N/A   Overcast
2:52 PM 19.0 °F 10.0 °F 12.9 °F 77% 30.26 in 10.0 mi South 6.9 mph - N/A   Partly Cloudy
3:52 PM 18.0 °F 9.8 °F 12.0 °F 78% 30.25 in 10.0 mi SW 5.8 mph - N/A   Clear
4:37 PM 17.6 °F 6.4 °F 10.4 °F 73% 30.17 in 10.0 mi SSW 9.2 mph - N/A   Mostly Cloudy
4:52 PM 18.0 °F 6.1 °F 12.0 °F 78% 30.24 in 10.0 mi SW 10.4 mph - N/A   Overcast
5:17 PM 17.6 °F 5.7 °F 12.2 °F 79% 30.16 in 10.0 mi SSW 10.4 mph - N/A   Overcast
5:52 PM 18.0 °F 8.7 °F 14.0 °F 84% 30.22 in 10.0 mi SSW 6.9 mph - N/A   Overcast
6:10 PM 19.4 °F 10.4 °F 15.8 °F 86% 30.15 in 10.0 mi South 6.9 mph - N/A   Overcast
6:52 PM 19.0 °F 11.1 °F 15.1 °F 85% 30.21 in 9.0 mi SSE 5.8 mph - N/A   Overcast
7:52 PM 17.1 °F 7.6 °F 12.0 °F 81% 30.20 in 10.0 mi SE 6.9 mph - N/A   Overcast
8:49 PM 15.8 °F 6.1 °F 10.4 °F 79% 30.11 in 10.0 mi SE 6.9 mph - N/A   Scattered Clouds
8:52 PM 14.0 °F 3.9 °F 10.9 °F 88% 30.18 in 10.0 mi SE 6.9 mph - N/A   Mostly Cloudy
9:52 PM 10.0 °F 0.4 °F 7.0 °F 87% 30.17 in 8.0 mi SSE 5.8 mph - N/A   Mostly Cloudy
9:59 PM 10.4 °F 0.8 °F 6.8 °F 85% 30.10 in 8.0 mi SE 5.8 mph - N/A   Clear
10:52 PM 8.1 °F -4.3 °F 6.1 °F 92% 30.15 in 8.0 mi SE 8.1 mph - N/A   Clear
11:52 PM 6.1 °F -5.6 °F 3.0 °F 87% 30.13 in 9.0 mi ESE 6.9 mph - N/A   Clear